Location: ???? ????????
(44.1848°N, 135.3672°E)
Time: 23:10:45
(UTC+00:00)

Daily predictions for brighter satellites

Satellite Brightness Start Highest point End
(mag) Time Altitude Azimuth Time Altitude Azimuth Time Altitude Azimuth
Cosmos 1455 1.2 12:01:41 10° N 12:04:24 69° E 12:06:01 21° SSE
Okean O Rocket 2.7 12:01:30 10° SSW 12:05:32 39° W 12:09:35 10° NNW
ATLAS CENTAUR R/B 1.8 12:04:34 10° NNW 12:08:15 44° NE 12:10:45 18° ESE
RESURS DK-1 2.9 12:07:18 15° S 12:10:10 34° ESE 12:13:49 10° NE
In-Cosmos 22 4.3 12:05:52 10° SSW 12:11:36 82° W 12:17:18 10° N
Cosmos 2237 Rocket 2.4 12:09:23 10° NNW 12:15:04 73° WSW 12:19:38 16° SSE
PSLV R/B 3.7 12:15:19 23° SE 12:17:02 49° ENE 12:20:15 10° N
USA 305 2.4 12:15:04 10° SW 12:19:02 87° SE 12:22:31 10° NE
Cosmos 921 Rocket 2.9 12:16:07 10° SSW 12:20:21 88° WNW 12:24:42 10° NNE
Cosmos 2016 Rocket 4.4 12:19:12 10° N 12:25:20 49° ENE 12:29:33 20° SE
Meteor 2-10 Rocket 4.1 12:20:03 10° NNW 12:25:41 63° W 12:30:38 12° S
Meteor 1-22 Rocket 4.1 12:24:42 10° N 12:30:04 77° E 12:33:51 21° SSE
SL-8 R/B 4.2 12:26:47 10° WNW 12:31:31 57° N 12:36:13 10° E
Cosmos 1437 Rocket 2.6 12:30:19 27° SSE 12:31:58 54° E 12:35:28 10° NNE
SL-14 R/B 4.0 12:32:35 10° SSW 12:36:24 52° W 12:40:15 10° N
USA 276 2.2 12:37:09 10° WNW 12:38:43 34° WSW 12:38:43 34° WSW
Cosmos 1818 3.9 12:36:08 10° SW 12:41:32 68° NW 12:46:59 10° NNE
Cosmos 2297 Rocket 3.8 12:39:54 10° WSW 12:45:06 37° NW 12:50:20 10° NNE
Cosmos 2173 Rocket 4.2 12:43:52 10° NNW 12:50:00 68° W 12:54:35 18° S
Ariane Rocket 3.3 12:49:31 21° S 12:52:52 61° WSW 12:57:55 10° NNW
Meteor 1-12 Rocket 4.5 12:48:15 10° N 12:54:06 63° ENE 12:57:22 27° SSE
SPOT 3 Rocket 4.1 12:51:45 19° S 12:55:16 53° W 13:00:19 10° NNW
Cosmos 1864 Rocket 4.5 12:50:40 10° N 12:56:53 86° W 13:00:52 24° S
USA 290 2.7 12:58:10 40° E 12:58:10 40° E 13:01:04 10° NE
SL-4 R/B 2.5 12:59:04 36° SE 12:59:04 36° SE 13:02:30 10° ENE
Cosmos 1269 Rocket 4.1 12:59:05 26° S 13:01:55 60° ESE 13:07:07 10° NNE
Cosmos 1953 2.6 12:58:53 10° N 13:02:31 46° ENE 13:03:24 38° ESE
Cosmos 2233 Rocket 4.1 12:57:00 10° N 13:03:18 67° E 13:06:44 28° SSE
Lacrosse 4 Rocket 1.7 13:00:29 10° NW 13:04:39 59° WSW 13:06:10 35° S
Meteor 1-23 Rocket 4.2 13:04:30 20° SSW 13:08:29 80° W 13:14:08 10° N
SL-16 R/B 2.1 13:03:56 10° NNW 13:09:38 89° WSW 13:12:23 32° SSE
Cosmos 2228 Rocket 4.4 13:10:21 23° ESE 13:11:03 24° E 13:14:39 10° NE
COSMOS 2455 3.8 13:06:00 10° NW 13:11:30 38° WSW 13:14:48 21° SSW
Cosmos 1703 4.3 13:13:11 25° E 13:13:11 25° E 13:15:57 10° NNE
Cosmos 2227 Rocket 3.2 13:08:07 10° SW 13:13:30 45° WNW 13:18:56 10° NNE
Meteor 1-21 4.2 13:10:45 24° S 13:14:18 90° W 13:20:05 10° N
Cosmos 1725 Rocket 4.2 13:08:27 10° NNW 13:14:43 70° W 13:18:34 25° S
Cosmos 1992 Rocket 4.5 13:10:29 10° NNW 13:15:30 51° WSW 13:17:59 28° SSW
GP-B 3.0 13:11:53 10° N 13:16:16 88° W 13:17:57 38° S
Cosmos 2263 Rocket 2.3 13:13:29 13° SSW 13:18:35 79° WNW 13:24:18 10° NNE
Meteor 1-16 Rocket 4.3 13:13:57 10° N 13:19:47 81° E 13:22:33 33° SSE
Cosmos 1707 Rocket 4.3 13:23:04 34° ESE 13:23:41 35° E 13:27:37 10° NNE
Terra 4.5 13:23:16 10° W 13:24:19 11° W 13:25:22 10° WNW
CZ-4C R/B 3.0 13:23:55 10° NNE 13:26:58 54° E 13:26:58 54° E
Cosmos 1933 Rocket 4.3 13:23:37 10° NNW 13:27:49 46° W 13:29:34 29° SSW
Cosmos 2084 Rocket 3.6 13:24:53 10° NW 13:28:55 52° WSW 13:29:39 45° SSW
Cosmos 1892 3.7 13:30:29 24° ENE 13:30:29 24° ENE 13:32:20 10° NNE
IRIDIUM 106 4.4 13:29:32 39° SSE 13:31:23 64° E 13:36:33 10° N
ALOS 2 4.2 13:30:06 21° E 13:31:33 25° ENE 13:35:07 10° NNE
Cosmos 1943 3.7 13:26:02 10° NNW 13:31:36 50° ENE 13:34:16 28° ESE
Landsat 5 4.4 13:30:20 10° NNE 13:34:11 32° E 13:34:22 32° ESE
Meteor 2-16 Rocket 4.4 13:32:36 28° SSW 13:35:59 81° W 13:42:07 10° N
Cosmos 2219 3.6 13:33:22 14° SW 13:38:18 64° WNW 13:44:03 10° NNE
Cosmos 1733 Rocket 3.3 13:35:03 10° N 13:39:23 56° E 13:40:16 46° ESE
NOSS 3-1 (C) 4.4 13:33:41 10° NNW 13:40:43 58° NE 13:47:01 19° ESE
Cosmos 1869 Rocket 4.1 13:37:53 10° NNW 13:42:08 50° W 13:43:27 36° SW
SeaSat 1 4.4 13:39:47 11° E 13:43:16 21° NE 13:46:53 10° N
ATLAS CENTAUR R/B 3.1 13:41:25 10° WNW 13:43:57 17° WSW 13:44:09 17° WSW
ASTEX 1 3.4 13:39:16 10° N 13:44:13 69° E 13:45:37 46° SSE
CZ-2C R/B 3.7 13:40:15 10° NNE 13:44:46 68° ESE 13:45:49 50° SSE
Cosmos 2082 3.9 13:44:08 21° SW 13:48:02 71° WNW 13:53:47 10° NNE
Cosmos 1763 Rocket 4.0 13:46:06 10° N 13:51:06 50° ENE 13:52:52 34° ESE
Cosmos 2292 Rocket 3.0 13:51:43 61° NNW 13:51:43 61° NNW 13:54:12 10° N
Cosmos 2061 Rocket 4.4 13:45:44 10° NNW 13:51:51 56° W 13:54:53 29° SSW
Okean 3 3.6 13:51:36 47° SW 13:52:34 64° W 13:56:39 10° N
Okean 2 3.6 13:53:46 46° SW 13:54:35 58° W 13:58:27 10° N
MetOp-A 3.7 14:01:42 52° S 14:02:53 84° WSW 14:07:31 10° NNW
Cosmos 2227 4.1 14:04:11 44° S 14:05:54 70° ESE 14:11:30 10° NNE
USA 234 4.1 14:01:30 10° ENE 14:07:04 29° SE 14:07:15 29° SE
Cosmos 1862 Rocket 3.5 14:06:29 56° SSW 14:07:22 79° W 14:11:49 10° N
Cosmos 1140 Rocket 4.2 14:07:29 23° SW 14:10:27 49° WNW 14:15:26 10° N
Cosmos 1513 Rocket 4.5 14:05:33 10° N 14:11:58 88° W 14:14:26 41° S
USA 307 4.2 14:15:00 24° ENE 14:15:00 24° ENE 14:16:52 10° ENE
SL-8 R/B 3.6 14:09:14 10° WNW 14:13:56 60° SSW 14:14:12 59° SSW
ARIANE 5 R/B 2.7 14:13:51 55° SSW 14:14:33 65° WSW 14:19:01 10° NNW
USA 59 Rocket 1.9 14:13:26 10° N 14:16:19 22° NE 14:19:13 13° E
Spot 4 3.7 14:15:39 56° SSE 14:16:43 89° W 14:21:34 10° NNW
Okean 1-7 2.7 14:17:57 74° SSW 14:18:19 89° WNW 14:22:27 10° N
SWAS 4.3 14:22:26 10° NNW 14:26:30 68° WSW 14:26:30 68° WSW
Cosmos 1271 Rocket 2.9 14:27:15 56° ENE 14:27:15 56° ENE 14:30:25 10° NNE
Cosmos 1844 Rocket 2.6 14:26:47 47° SSW 14:28:29 80° ESE 14:34:11 10° NNE
NOSS 3-1 (A) 4.5 14:21:45 10° NNW 14:28:49 58° NE 14:35:51 16° ESE
ATLAS 2AS CENTAUR R/B 3.3 14:28:12 35° SE 14:29:47 39° ESE 14:36:11 10° NE
PSLV R/B 3.5 14:26:26 10° NNE 14:30:43 66° E 14:31:04 63° SE
Cosmos 1844 3.6 14:30:43 50° S 14:32:10 76° ESE 14:37:44 10° NNE
Cosmos 407 Rocket 3.9 14:30:32 33° SW 14:32:36 56° WNW 14:37:38 10° NNE
SJ 16-02 2.5 14:36:07 29° E 14:36:07 29° E 14:39:42 10° NE
SL-4 R/B 2.7 14:32:50 11° W 14:36:42 51° NNW 14:40:36 10° NE
Cosmos 1300 Rocket 4.4 14:34:11 10° N 14:38:19 38° ENE 14:39:05 35° E
Cosmos 2251 Rocket 3.5 14:37:13 46° SSW 14:38:50 79° WNW 14:44:14 10° NNE
Meteor 1-24 Rocket 4.0 14:42:57 44° SSE 14:44:41 62° E 14:50:32 10° NNE
Cosmos 1464 Rocket 4.1 14:39:20 10° NNW 14:45:35 68° W 14:47:39 43° SSW
Cosmos 1954 Rocket 3.9 14:47:09 56° S 14:48:14 78° ESE 14:53:27 10° NNE
PSLV R/B 3.9 14:44:32 10° NNE 14:48:18 62° E 14:48:18 62° E
Cosmos 2228 Rocket 4.4 14:47:43 27° WSW 14:48:59 31° WNW 14:52:59 10° N
Meteor 2-17 Rocket 4.5 14:50:00 45° SSE 14:51:51 69° E 14:57:51 10° NNE
Cosmos 2034 Rocket 3.9 14:46:01 10° N 14:52:16 89° W 14:54:22 45° S
BREEZE-M DEB (TANK) 3.6 14:42:55 10° SW 14:52:40 48° SSE 14:55:59 10° ENE
SL-16 R/B 4.3 14:50:27 10° WNW 14:52:50 13° W 14:54:14 12° WSW
Aureole 3 Rocket 3.9 14:49:58 10° NNW 14:52:29 30° W 14:52:29 30° W
Cosmos 1190 Rocket 4.0 14:51:44 48° SW 14:53:13 77° WNW 14:58:31 10° NNE
Cosmos 1703 Rocket 3.4 14:54:19 71° SW 14:54:42 79° W 14:59:02 10° N
Cosmos 540 Rocket 3.6 14:50:17 10° NNW 14:55:17 56° WSW 14:56:03 50° SW
Meteor 2-5 Rocket 3.8 14:55:35 47° SSE 14:57:18 73° E 15:03:14 10° NNE
Cosmos 1782 Rocket 3.7 14:53:48 10° N 14:58:11 61° E 14:58:47 55° ESE
MINOTAUR IV R/B 4.4 15:01:11 68° SE 15:01:24 70° ESE 15:05:47 10° NNE
Cosmos 468 Rocket 3.9 14:59:21 10° NNW 15:04:28 66° WSW 15:05:19 56° SSW
Cosmos 841 Rocket 3.8 15:00:47 10° NNW 15:06:01 63° ENE 15:07:43 40° SE
NOSS 2-1 (D) 3.9 15:02:49 10° NNW 15:06:23 55° NE 15:07:44 38° ESE
ALOS 2 3.6 15:07:30 33° WSW 15:07:44 33° W 15:11:43 10° NNW
Cosmos 1833 Rocket 4.1 15:06:28 10° N 15:11:31 32° NE 15:16:04 12° ESE
Cosmos 1943 4.4 15:10:40 10° NW 15:15:16 26° WSW 15:16:02 25° WSW
Cosmos 2344 4.4 15:08:46 10° NW 15:17:02 53° WSW 15:22:12 32° S
SeaSat 1 2.4 15:19:25 57° SSW 15:20:13 68° WSW 15:25:07 10° NNW
Cosmos 1634 Rocket 3.9 15:18:30 10° N 15:24:49 89° ENE 15:27:04 43° S
Cosmos 2242 Rocket 3.8 15:24:58 51° SE 15:25:34 56° E 15:29:57 10° NNE
CZ-2C R/B 3.8 15:26:04 10° NNE 15:31:14 44° E 15:32:41 35° SE
Cosmos 1603 4.4 15:27:35 10° NW 15:32:37 35° WSW 15:33:20 34° WSW
NOSS 2-1 (C) 3.3 15:30:44 10° NW 15:34:26 86° SW 15:35:02 65° SSE
H-2A R/B 2.9 15:34:30 40° E 15:34:59 43° ENE 15:38:28 10° N
NOSS 2-1 (E) 3.4 15:33:51 10° NW 15:37:35 90° NE 15:38:27 58° SE
Cosmos 968 Rocket 3.5 15:38:36 51° S 15:39:48 69° ESE 15:45:01 10° NNE
Cosmos 1606 3.0 15:39:19 10° N 15:41:35 46° NNW 15:41:35 46° NNW
USA 307 3.9 15:41:31 24° WNW 15:43:17 38° NNW 15:47:01 10° NE
Cosmos 2278 Rocket 3.7 15:42:00 20° SE 15:43:50 23° ESE 15:48:12 10° NE
CZ-2C R/B 2.7 15:47:16 36° SE 15:49:23 69° ENE 15:54:40 10° N
USA 234 3.2 15:43:57 10° NE 15:50:31 84° NW 15:54:34 26° WSW
Cosmos 1943 Rocket 3.7 15:50:11 20° SE 15:52:03 23° ESE 15:56:19 10° NE
Cosmos 1869 4.5 15:48:55 10° N 15:52:17 32° ENE 15:53:14 28° ESE
SL-12 R/B(2) 4.3 15:48:38 29° SW 15:53:23 81° NW 16:03:08 10° NE
Cosmos 1674 Rocket 4.1 15:56:29 40° SE 15:57:24 47° E 16:01:34 10° NNE
CZ-2D R/B 4.5 15:55:30 10° ENE 15:57:55 13° E 16:00:19 10° ESE
Nadezhda 4 Rocket 4.4 15:55:23 31° SSE 15:58:12 56° E 16:04:18 10° NNE
Landsat 4 3.8 16:00:59 49° N 16:00:59 49° N 16:03:14 10° NNW
STPSAT 2 (USA 217) 4.5 16:01:24 58° SW 16:02:15 83° WNW 16:06:43 10° NNE
USA 59 Rocket 0.5 16:01:38 10° NW 16:05:03 42° WSW 16:05:03 42° WSW
Cosmos 1741 Rocket 4.0 16:05:20 44° SSW 16:07:03 78° WNW 16:12:23 10° NNE
ATLAS 3B R/B 3.3 15:59:10 10° NW 16:07:05 69° NE 16:14:36 10° SE
Cosmos 371 Rocket 3.4 16:07:11 46° SW 16:08:30 69° WNW 16:13:22 10° NNE
SJ 16-02 2.8 16:12:41 23° W 16:14:04 27° WNW 16:17:47 10° N
SL-4 R/B 4.0 16:11:47 10° WNW 16:15:16 27° N 16:18:39 10° NE
Cosmos 2151 Rocket 3.6 16:12:34 10° N 16:17:01 80° E 16:18:25 43° SSE
In-Cosmos 22 Rocket 4.2 16:15:52 38° S 16:18:09 81° E 16:23:54 10° NNE
Okean 2 Rocket 3.2 16:15:35 10° N 16:20:04 70° E 16:21:44 37° SSE
ATLAS 2AS CENTAUR R/B 3.3 16:15:35 19° WSW 16:20:34 51° NW 16:27:20 10° NNE
Nimbus 7 Rocket 4.4 16:19:57 10° NNE 16:25:52 82° WNW 16:28:38 34° SSW
Okean 1 Rocket 3.2 16:26:43 10° N 16:31:10 70° E 16:33:10 32° SSE
ADEOS II 4.2 16:27:52 10° NE 16:31:22 18° E 16:34:52 10° SE
Cosmos 1025 Rocket 3.0 16:33:21 42° S 16:34:42 74° E 16:38:57 10° NNE
Cosmos 1378 Rocket 4.1 16:35:49 37° WSW 16:36:59 46° WNW 16:41:15 10° N
Cosmos 158 Rocket 4.2 16:32:45 10° NNW 16:37:49 64° ENE 16:41:52 15° SSE
FENGYUN 3A 4.3 16:40:13 10° NNE 16:45:26 49° E 16:48:42 22° SSE
Cosmos 1975 Rocket 4.4 16:47:08 17° SSE 16:49:59 35° E 16:54:00 10° NNE
Cosmos 1428 Rocket 4.5 16:49:59 29° SSW 16:53:17 72° W 16:59:23 10° N
MOZ.5/SAFIR/RUBIN 5/SL-8 3.7 16:50:54 23° SSE 16:53:44 82° ENE 16:58:20 10° NNW
Cosmos 1833 Rocket 3.1 16:50:16 10° NW 16:55:30 41° WSW 16:57:41 29° SSW
IDEFIX/ARIANE 42P 2.5 16:50:40 10° NNE 16:55:56 82° WNW 16:58:40 29° SSW
MSX 3.8 16:50:10 10° NNE 16:55:56 90° WNW 16:59:15 27° SSW
SL-24 R/B - RUBIN 2 3.7 16:51:56 10° NW 16:56:41 58° WSW 16:59:00 26° S
Cosmos 1340 Rocket 3.3 16:53:43 10° NNW 16:57:18 38° W 16:57:59 35° WSW
Cosmos 1814 Rocket 4.3 16:53:08 10° NNW 16:58:18 51° WSW 17:00:49 28° SSW
Meteor 1-11 4.3 17:00:09 27° SSW 17:03:21 74° W 17:09:12 10° N
NPP 3.6 17:01:59 10° NNE 17:07:24 78° WNW 17:10:36 25° SSW
H-2A R/B 4.3 17:09:52 13° W 17:09:52 13° W 17:11:17 10° WNW
CZ-2C R/B 4.5 17:06:16 10° N 17:10:45 27° WNW 17:13:40 17° WSW
H-2A R/B 1.8 17:08:41 10° NNE 17:12:41 81° WNW 17:14:38 29° SSW
USA 229 DEB 4.0 17:06:28 10° NW 17:13:59 68° WSW 17:22:06 10° SSE
USA 229 4.0 17:06:34 10° NW 17:14:05 69° WSW 17:22:12 10° SSE
COSMOS 2406 4.4 17:09:00 10° NNW 17:14:31 45° ENE 17:19:59 10° SE
ATLAS 5 CENTAUR R/B 2.4 17:15:08 18° SSE 17:16:15 22° ESE 17:18:49 10° ENE
Cosmos 1455 Rocket 2.9 17:13:20 10° N 17:17:42 82° W 17:20:39 20° S
SL-16 R/B 4.1 17:13:39 10° SE 17:19:09 35° ENE 17:24:42 10° N
Cosmos 220 Rocket 4.5 17:19:53 10° NNW 17:24:00 57° ENE 17:28:07 10° SSE
Cosmos 2082 Rocket 2.3 17:19:27 10° NNW 17:25:11 83° ENE 17:30:54 10° SSE
Resurs 1-4 Rocket 2.1 17:20:04 10° NNE 17:25:21 81° ESE 17:29:19 18° S
Cosmos 2278 Rocket 2.6 17:23:49 21° SW 17:27:29 55° WNW 17:33:03 10° NNE
Cosmos 1486 Rocket 4.4 17:23:49 17° S 17:27:41 59° ESE 17:32:49 10° NNE
CZ-2C R/B 4.3 17:28:43 14° WSW 17:30:09 16° W 17:33:18 10° NW
USA 234 4.5 17:27:11 10° NE 17:33:03 37° NNW 17:38:56 10° W
Cosmos 1943 Rocket 2.6 17:31:40 20° SW 17:35:23 52° WNW 17:40:47 10° NNE
SAR-Lupe-3 4.2 17:33:36 14° SSE 17:36:00 74° ENE 17:38:56 10° N
CZ-2D R/B 2.1 17:33:09 10° NNE 17:38:36 85° WNW 17:42:54 16° SSW
Cosmos 1515 2.6 17:37:13 10° NNW 17:39:55 75° W 17:41:27 23° S
Cosmos 1553 Rocket 3.9 17:35:00 10° N 17:41:06 86° W 17:47:12 10° S
Cosmos 2228 3.1 17:37:59 10° N 17:42:07 73° E 17:46:13 10° SSE
Cosmos 1812 3.3 17:43:30 10° NNW 17:46:15 27° W 17:47:25 21° SW
SL-4 R/B 3.5 17:50:21 10° NW 17:53:59 36° NNE 17:57:28 10° E
Cosmos 2098 Rocket 2.6 17:50:38 10° NNW 17:54:18 53° W 17:56:50 15° SSW
ALOS 2.2 17:52:01 10° NNE 17:56:36 83° WNW 18:00:49 12° SSW
ATLAS 3B R/B 3.7 17:50:44 10° NW 17:57:18 30° WSW 18:03:35 10° SSW
USA 281 3.8 17:51:34 10° NNE 17:58:00 54° ESE 18:04:23 10° S
Cosmos 1544 Rocket 3.5 17:57:17 10° N 18:01:36 89° W 18:05:54 10° S
CZ-2C R/B 4.5 18:00:00 10° NE 18:03:38 22° E 18:07:18 10° SE
Cosmos 1503 Rocket 4.1 17:59:20 11° SSW 18:04:25 81° ESE 18:09:40 10° NNE
Cosmos 2369 Rocket 3.3 17:59:14 10° S 18:04:33 42° ESE 18:09:53 10° NE
NOAA 11 4.2 17:59:31 10° N 18:05:02 78° WNW 18:10:29 10° SSW
Cosmos 2266 Rocket 4.1 17:59:37 10° S 18:05:44 80° E 18:12:01 10° N
AQUA 3.9 18:04:23 10° NNE 18:09:06 81° ESE 18:13:47 10° S
ADEOS II 2.2 18:06:11 10° N 18:11:21 62° WNW 18:16:29 10° SSW
H-2A R/B 4.5 18:08:16 10° NNE 18:12:00 40° E 18:15:42 10° S
USA 305 0.6 18:14:18 10° NW 18:15:29 36° NNE 18:15:51 20° E
Cosmos 2208 Rocket 4.3 18:12:42 10° NNW 18:17:36 45° WSW 18:22:29 10° S
NOSS 3-3 (A) 3.8 18:15:28 10° SSW 18:20:37 73° ESE 18:26:42 10° NE
Cosmos 773 Rocket 4.2 18:18:31 10° NNW 18:23:32 51° WSW 18:28:34 10° S
Cosmos 990 Rocket 4.4 18:23:38 10° S 18:28:40 63° ESE 18:33:45 10° NNE
Cosmos 2084 3.2 18:32:21 10° NW 18:36:18 88° NE 18:40:12 10° SE
DMSP B5D2-2 4.3 18:32:13 10° S 18:37:19 51° W 18:42:28 10° NNW
Atlas Centaur 2 4.1 18:35:32 10° SW 18:41:59 26° SSE 18:48:15 10° ESE
BREEZE-M DEB 4.5 18:35:52 10° W 18:49:25 62° NNW 18:53:08 10° ENE
